TAM3376 SBGR-SBRF

Flight info

Callsign TAM3376
Flight time 2h 35m
Altitude 35000
Route VUMEV UZ14 DALOX/N0452F370 UZ14 AKPAS DCT ANBEX
Aircraft A321/M-SDE3FGHIRWY/LB1

Departure

Time 2026-05-04 20:26
Airport São Paulo/Guarulhos–Governor André Franco Montoro International Airport (SBGR)

Arrival

Time 2026-05-04 23:01
Airport Recife/Guararapes - Gilberto Freyre International Airport (SBRF)
Time Latitude Longitude Altitude Speed Heading
2026-05-04 19:42 -23.42783 -46.47954 2469 ft 0 kts 264°
2026-05-04 20:16 -23.42780 -46.47932 2468 ft 3 kts 256°
2026-05-04 20:16 -23.42774 -46.47909 2471 ft 3 kts 240°
2026-05-04 20:16 -23.42760 -46.47892 2471 ft 3 kts 205°
2026-05-04 20:17 -23.42746 -46.47888 2471 ft 1 kts 171°
2026-05-04 20:17 -23.42743 -46.47889 2468 ft 0 kts 171°
2026-05-04 20:21 -23.42750 -46.47887 2468 ft 2 kts 171°
2026-05-04 20:22 -23.42787 -46.47881 2468 ft 9 kts 171°
2026-05-04 20:22 -23.42864 -46.47850 2468 ft 13 kts 154°
2026-05-04 20:22 -23.42954 -46.47823 2470 ft 14 kts 167°
2026-05-04 20:22 -23.43036 -46.47852 2475 ft 14 kts 240°
2026-05-04 20:23 -23.43069 -46.47954 2474 ft 15 kts 253°
2026-05-04 20:23 -23.43099 -46.48066 2474 ft 16 kts 254°
2026-05-04 20:23 -23.43130 -46.48181 2473 ft 16 kts 253°
2026-05-04 20:23 -23.43162 -46.48302 2469 ft 17 kts 254°
2026-05-04 20:24 -23.43206 -46.48384 2470 ft 11 kts 198°
2026-05-04 20:24 -23.43270 -46.48375 2474 ft 10 kts 165°
2026-05-04 20:24 -23.43337 -46.48355 2472 ft 10 kts 165°
2026-05-04 20:24 -23.43397 -46.48317 2470 ft 11 kts 127°
2026-05-04 20:25 -23.43401 -46.48232 2469 ft 13 kts 77°
2026-05-04 20:25 -23.43339 -46.48005 2471 ft 64 kts 73°
2026-05-04 20:25 -23.43144 -46.47289 2469 ft 129 kts 74°
2026-05-04 20:25 -23.42841 -46.46165 2473 ft 177 kts 72°
2026-05-04 20:26 -23.42489 -46.44843 3015 ft 178 kts 71°
2026-05-04 20:26 -23.42108 -46.43536 3584 ft 184 kts 72°
2026-05-04 20:26 -23.41708 -46.42163 3897 ft 199 kts 71°
2026-05-04 20:26 -23.41262 -46.40655 4021 ft 220 kts 71°
2026-05-04 20:27 -23.40773 -46.38992 4146 ft 243 kts 70°
2026-05-04 20:27 -23.40232 -46.37152 4383 ft 266 kts 71°
2026-05-04 20:27 -23.39446 -46.35307 4949 ft 272 kts 56°
2026-05-04 20:27 -23.38424 -46.33551 5594 ft 277 kts 55°
2026-05-04 20:28 -23.37381 -46.31765 6264 ft 282 kts 54°
2026-05-04 20:28 -23.36324 -46.29954 6925 ft 286 kts 55°
2026-05-04 20:28 -23.35252 -46.28111 7599 ft 290 kts 55°
2026-05-04 20:28 -23.34170 -46.26240 8282 ft 293 kts 55°
2026-05-04 20:29 -23.33081 -46.24353 8985 ft 296 kts 55°
2026-05-04 20:29 -23.31979 -46.22449 9649 ft 299 kts 55°
2026-05-04 20:29 -23.30861 -46.20520 10279 ft 303 kts 56°
2026-05-04 20:29 -23.29696 -46.18524 10465 ft 324 kts 56°
2026-05-04 20:30 -23.28449 -46.16382 10599 ft 345 kts 56°
2026-05-04 20:30 -23.27142 -46.14138 10999 ft 355 kts 56°
2026-05-04 20:30 -23.25814 -46.11853 11561 ft 360 kts 56°
2026-05-04 20:30 -23.24468 -46.09541 12149 ft 364 kts 57°
2026-05-04 20:31 -23.23088 -46.07216 12730 ft 368 kts 53°
2026-05-04 20:31 -23.21380 -46.05134 13297 ft 371 kts 40°
2026-05-04 20:31 -23.19292 -46.03471 13864 ft 374 kts 28°
2026-05-04 20:31 -23.16915 -46.02308 14362 ft 376 kts 17°
2026-05-04 20:32 -23.14434 -46.01363 14889 ft 380 kts 17°
2026-05-04 20:32 -23.11887 -46.00597 15425 ft 380 kts
2026-05-04 20:32 -23.09261 -46.00244 15971 ft 381 kts
2026-05-04 20:32 -23.06617 -45.99927 16537 ft 384 kts
2026-05-04 20:33 -23.03948 -45.99604 17075 ft 387 kts
2026-05-04 20:33 -23.01265 -45.99276 17604 ft 390 kts
2026-05-04 20:33 -22.98557 -45.98946 18113 ft 393 kts
2026-05-04 20:33 -22.95824 -45.98611 18586 ft 397 kts
2026-05-04 20:34 -22.93068 -45.98274 19042 ft 400 kts
2026-05-04 20:34 -22.90304 -45.97778 19475 ft 407 kts 11°
2026-05-04 20:34 -22.87621 -45.96718 19916 ft 415 kts 23°
2026-05-04 20:34 -22.85136 -45.95084 20347 ft 422 kts 32°
2026-05-04 20:35 -22.82718 -45.93247 20766 ft 426 kts 32°
2026-05-04 20:35 -22.80283 -45.91404 21206 ft 428 kts 32°
2026-05-04 20:35 -22.77830 -45.89554 21656 ft 431 kts 32°
2026-05-04 20:35 -22.75355 -45.87691 22100 ft 435 kts 32°
2026-05-04 20:36 -22.72864 -45.85817 22541 ft 437 kts 32°
2026-05-04 20:36 -22.70354 -45.83928 22948 ft 440 kts 32°
2026-05-04 20:36 -22.67831 -45.82032 23348 ft 443 kts 32°
2026-05-04 20:36 -22.65289 -45.80121 23762 ft 446 kts 32°
2026-05-04 20:37 -22.62730 -45.78198 24093 ft 449 kts 32°
2026-05-04 20:37 -22.60156 -45.76266 24435 ft 451 kts 32°
2026-05-04 20:37 -22.57575 -45.74329 24827 ft 452 kts 32°
2026-05-04 20:37 -22.54982 -45.72385 25153 ft 455 kts 32°
2026-05-04 20:38 -22.52374 -45.70431 25454 ft 458 kts 32°
2026-05-04 20:38 -22.49749 -45.68463 25744 ft 461 kts 32°
2026-05-04 20:38 -22.47100 -45.66476 26052 ft 464 kts 32°
2026-05-04 20:38 -22.44440 -45.64482 26359 ft 467 kts 32°
2026-05-04 20:39 -22.41761 -45.62478 26675 ft 470 kts 32°
2026-05-04 20:39 -22.39065 -45.60464 26976 ft 472 kts 32°
2026-05-04 20:39 -22.36355 -45.58443 27278 ft 475 kts 32°
2026-05-04 20:39 -22.33623 -45.56405 27577 ft 478 kts 32°
2026-05-04 20:40 -22.30884 -45.54360 27881 ft 480 kts 32°
2026-05-04 20:40 -22.28129 -45.52300 28180 ft 483 kts 32°
2026-05-04 20:40 -22.25356 -45.50231 28468 ft 486 kts 31°
2026-05-04 20:40 -22.22569 -45.48152 28737 ft 489 kts 31°
2026-05-04 20:41 -22.19757 -45.46054 28983 ft 492 kts 31°
2026-05-04 20:41 -22.16938 -45.43948 29253 ft 494 kts 31°
2026-05-04 20:41 -22.14098 -45.41829 29520 ft 497 kts 31°
2026-05-04 20:41 -22.11244 -45.39706 29781 ft 500 kts 31°
2026-05-04 20:42 -22.08374 -45.37575 30052 ft 502 kts 31°
2026-05-04 20:42 -22.05494 -45.35436 30329 ft 504 kts 31°
2026-05-04 20:42 -22.02610 -45.33260 30578 ft 507 kts 32°
2026-05-04 20:42 -21.99777 -45.30983 30829 ft 510 kts 34°
2026-05-04 20:43 -21.96980 -45.28613 31079 ft 512 kts 36°
2026-05-04 20:43 -21.94218 -45.26202 31431 ft 511 kts 36°
2026-05-04 20:43 -21.91464 -45.23786 31759 ft 510 kts 36°
2026-05-04 20:43 -21.88703 -45.21388 32075 ft 510 kts 35°
2026-05-04 20:44 -21.85890 -45.18984 32400 ft 509 kts 34°
2026-05-04 20:44 -21.83103 -45.16635 32737 ft 508 kts 34°
2026-05-04 20:44 -21.80314 -45.14306 33082 ft 507 kts 33°
2026-05-04 20:44 -21.77530 -45.11985 33413 ft 506 kts 33°
2026-05-04 20:45 -21.74750 -45.09662 33751 ft 505 kts 33°
2026-05-04 20:45 -21.71979 -45.07338 34071 ft 505 kts 33°
2026-05-04 20:45 -21.69217 -45.05016 34358 ft 504 kts 33°
2026-05-04 20:45 -21.66458 -45.02692 34624 ft 503 kts 33°
2026-05-04 20:46 -21.63699 -45.00369 34875 ft 503 kts 33°
2026-05-04 20:46 -21.60941 -44.98049 35098 ft 504 kts 33°
2026-05-04 20:46 -21.55437 -44.93434 35159 ft 500 kts 33°
2026-05-04 20:47 -21.49950 -44.88848 35159 ft 498 kts 33°
2026-05-04 20:47 -21.44481 -44.84279 35161 ft 499 kts 33°
2026-05-04 20:48 -21.39005 -44.79705 35172 ft 499 kts 33°
2026-05-04 20:48 -21.33528 -44.75131 35163 ft 499 kts 33°
2026-05-04 20:49 -21.28056 -44.70553 35156 ft 499 kts 33°
2026-05-04 20:49 -21.22576 -44.65977 35152 ft 499 kts 33°
2026-05-04 20:50 -21.17089 -44.61414 35175 ft 499 kts 33°
2026-05-04 20:50 -21.11603 -44.56847 35176 ft 499 kts 33°
2026-05-04 20:51 -21.06119 -44.52280 35193 ft 499 kts 33°
2026-05-04 20:51 -21.00628 -44.47720 35202 ft 499 kts 33°
2026-05-04 20:52 -20.95138 -44.43165 35201 ft 499 kts 33°
2026-05-04 20:52 -20.89645 -44.38619 35211 ft 499 kts 32°
2026-05-04 20:53 -20.84152 -44.34080 35198 ft 499 kts 32°
2026-05-04 20:53 -20.78671 -44.29537 35208 ft 498 kts 33°
2026-05-04 20:54 -20.73198 -44.25012 35206 ft 497 kts 33°
2026-05-04 20:54 -20.67718 -44.20494 35205 ft 497 kts 32°
2026-05-04 20:55 -20.62245 -44.15975 35206 ft 497 kts 33°
2026-05-04 20:55 -20.56810 -44.11409 35218 ft 498 kts 33°
2026-05-04 20:56 -20.51385 -44.06815 35221 ft 498 kts 33°
2026-05-04 20:56 -20.45939 -44.02272 35209 ft 497 kts 32°
2026-05-04 20:57 -20.41335 -43.98522 35216 ft 497 kts 32°
2026-05-04 20:57 -20.35872 -43.94091 35220 ft 497 kts 32°
2026-05-04 20:58 -20.30343 -43.89582 35223 ft 497 kts 32°
2026-05-04 20:58 -20.24890 -43.85124 35211 ft 497 kts 32°
2026-05-04 20:59 -20.19406 -43.80642 35223 ft 497 kts 32°
2026-05-04 20:59 -20.13917 -43.76171 35226 ft 497 kts 32°
2026-05-04 21:00 -20.08421 -43.71708 35218 ft 497 kts 32°
2026-05-04 21:00 -20.02939 -43.67252 35220 ft 496 kts 32°
2026-05-04 21:01 -19.97457 -43.62796 35234 ft 496 kts 32°
2026-05-04 21:01 -19.91978 -43.58349 35222 ft 496 kts 32°
2026-05-04 21:02 -19.86488 -43.53890 35209 ft 496 kts 32°
2026-05-04 21:02 -19.81017 -43.49437 35218 ft 495 kts 32°
2026-05-04 21:03 -19.75515 -43.44963 35210 ft 494 kts 32°
2026-05-04 21:03 -19.70055 -43.40528 35199 ft 494 kts 32°
2026-05-04 21:04 -19.64592 -43.36104 35212 ft 494 kts 32°
2026-05-04 21:04 -19.59134 -43.31681 35210 ft 493 kts 32°
2026-05-04 21:05 -19.53676 -43.27252 35211 ft 494 kts 32°
2026-05-04 21:05 -19.48218 -43.22832 35199 ft 493 kts 32°
2026-05-04 21:06 -19.42770 -43.18428 35200 ft 492 kts 32°
2026-05-04 21:06 -19.37322 -43.14029 35202 ft 492 kts 32°
2026-05-04 21:07 -19.31875 -43.09637 35201 ft 492 kts 32°
2026-05-04 21:07 -19.26433 -43.05246 35198 ft 491 kts 33°
2026-05-04 21:08 -19.21000 -43.00863 35194 ft 491 kts 32°
2026-05-04 21:08 -19.15571 -42.96488 35200 ft 491 kts 32°
2026-05-04 21:09 -19.10129 -42.92118 35203 ft 491 kts 32°
2026-05-04 21:09 -19.04689 -42.87752 35201 ft 491 kts 32°
2026-05-04 21:10 -18.99250 -42.83388 35201 ft 491 kts 33°
2026-05-04 21:10 -18.93782 -42.79003 35207 ft 490 kts 32°
2026-05-04 21:11 -18.88347 -42.74644 35194 ft 490 kts 33°
2026-05-04 21:11 -18.82920 -42.70296 35202 ft 490 kts 32°
2026-05-04 21:12 -18.77498 -42.65956 35206 ft 489 kts 32°
2026-05-04 21:12 -18.72072 -42.61623 35207 ft 489 kts 32°
2026-05-04 21:13 -18.66641 -42.57293 35200 ft 489 kts 33°
2026-05-04 21:13 -18.61216 -42.52959 35207 ft 489 kts 33°
2026-05-04 21:14 -18.55794 -42.48628 35208 ft 489 kts 33°
2026-05-04 21:14 -18.50372 -42.44302 35203 ft 489 kts 33°
2026-05-04 21:15 -18.44955 -42.39983 35193 ft 488 kts 33°
2026-05-04 21:15 -18.39501 -42.35647 35198 ft 488 kts 33°
2026-05-04 21:16 -18.34078 -42.31350 35199 ft 487 kts 33°
2026-05-04 21:16 -18.28704 -42.27084 35175 ft 487 kts 33°
2026-05-04 21:17 -18.23258 -42.22762 35191 ft 487 kts 33°
2026-05-04 21:17 -18.17890 -42.18500 35195 ft 487 kts 33°
2026-05-04 21:18 -18.12483 -42.14215 35196 ft 486 kts 33°
2026-05-04 21:18 -18.07077 -42.09936 35185 ft 486 kts 33°
2026-05-04 21:19 -18.01644 -42.05628 35191 ft 486 kts 33°
2026-05-04 21:19 -17.96245 -42.01360 35195 ft 486 kts 33°
2026-05-04 21:20 -17.90840 -41.97099 35219 ft 485 kts 33°
2026-05-04 21:20 -17.85444 -41.92848 35187 ft 485 kts 33°
2026-05-04 21:21 -17.80086 -41.88624 35197 ft 484 kts 33°
2026-05-04 21:21 -17.74669 -41.84350 35198 ft 484 kts 33°
2026-05-04 21:22 -17.69277 -41.80103 35209 ft 485 kts 33°
2026-05-04 21:22 -17.63914 -41.75884 35208 ft 485 kts 33°
2026-05-04 21:23 -17.58491 -41.71615 35210 ft 483 kts 33°
2026-05-04 21:23 -17.53108 -41.67389 35215 ft 484 kts 33°
2026-05-04 21:24 -17.47725 -41.63171 35214 ft 483 kts 33°
2026-05-04 21:24 -17.42377 -41.58984 35193 ft 483 kts 33°
2026-05-04 21:25 -17.36995 -41.54770 35208 ft 483 kts 33°
2026-05-04 21:25 -17.31578 -41.50523 35208 ft 483 kts 33°
2026-05-04 21:26 -17.26194 -41.46302 35215 ft 483 kts 33°
2026-05-04 21:26 -17.20812 -41.42092 35203 ft 483 kts 33°
2026-05-04 21:27 -17.15433 -41.37885 35210 ft 483 kts 33°
2026-05-04 21:27 -17.10045 -41.33687 35210 ft 483 kts 33°
2026-05-04 21:28 -17.04671 -41.29496 35213 ft 482 kts 33°
2026-05-04 21:28 -16.99302 -41.25302 35214 ft 482 kts 33°
2026-05-04 21:29 -16.93932 -41.21118 35213 ft 481 kts 33°
2026-05-04 21:29 -16.88566 -41.16942 35213 ft 481 kts 33°
2026-05-04 21:30 -16.83206 -41.12765 35213 ft 481 kts 33°
2026-05-04 21:30 -16.77842 -41.08593 35201 ft 480 kts 33°
2026-05-04 21:31 -16.69782 -41.02360 35199 ft 480 kts 33°
2026-05-04 21:32 -16.65290 -40.98863 35202 ft 481 kts 33°
2026-05-04 21:32 -16.59928 -40.94689 35210 ft 481 kts 33°
2026-05-04 21:33 -16.54558 -40.90523 35202 ft 482 kts 33°
2026-05-04 21:33 -16.49179 -40.86360 35201 ft 481 kts 33°
2026-05-04 21:34 -16.43805 -40.82211 35203 ft 481 kts 33°
2026-05-04 21:34 -16.38428 -40.78053 35202 ft 481 kts 33°
2026-05-04 21:35 -16.33057 -40.73895 35203 ft 481 kts 33°
2026-05-04 21:35 -16.27685 -40.69747 35179 ft 481 kts 33°
2026-05-04 21:36 -16.22321 -40.65606 35196 ft 480 kts 33°
2026-05-04 21:36 -16.16959 -40.61463 35190 ft 480 kts 34°
2026-05-04 21:37 -16.11598 -40.57330 35182 ft 480 kts 33°
2026-05-04 21:37 -16.06231 -40.53209 35181 ft 480 kts 34°
2026-05-04 21:38 -16.00869 -40.49075 35177 ft 480 kts 34°
2026-05-04 21:38 -15.95507 -40.44937 35180 ft 480 kts 34°
2026-05-04 21:39 -15.90137 -40.40819 35171 ft 480 kts 33°
2026-05-04 21:39 -15.84757 -40.36712 35152 ft 480 kts 34°
2026-05-04 21:40 -15.79390 -40.32594 35168 ft 480 kts 34°
2026-05-04 21:40 -15.73983 -40.28447 35172 ft 480 kts 34°
2026-05-04 21:41 -15.68612 -40.24336 35167 ft 479 kts 34°
2026-05-04 21:41 -15.63250 -40.20225 35156 ft 479 kts 34°
2026-05-04 21:42 -15.57884 -40.16120 35161 ft 479 kts 34°
2026-05-04 21:42 -15.52548 -40.12044 35163 ft 479 kts 34°
2026-05-04 21:43 -15.47169 -40.07955 35162 ft 480 kts 34°
2026-05-04 21:43 -15.41782 -40.03864 35163 ft 480 kts 34°
2026-05-04 21:44 -15.36359 -39.99744 35158 ft 480 kts 34°
2026-05-04 21:44 -15.30984 -39.95645 35161 ft 480 kts 34°
2026-05-04 21:45 -15.25600 -39.91553 35164 ft 480 kts 34°
2026-05-04 21:45 -15.20208 -39.87458 35165 ft 480 kts 34°
2026-05-04 21:46 -15.14821 -39.83375 35151 ft 480 kts 34°
2026-05-04 21:46 -15.09429 -39.79294 35154 ft 480 kts 34°
2026-05-04 21:47 -15.04043 -39.75207 35150 ft 480 kts 34°
2026-05-04 21:47 -14.98658 -39.71121 35151 ft 480 kts 34°
2026-05-04 21:48 -14.93256 -39.67043 35142 ft 480 kts 33°
2026-05-04 21:48 -14.87846 -39.62996 35144 ft 480 kts 33°
2026-05-04 21:49 -14.82444 -39.58935 35146 ft 480 kts 34°
2026-05-04 21:49 -14.77048 -39.54870 35150 ft 480 kts 34°
2026-05-04 21:50 -14.71664 -39.50801 35140 ft 479 kts 34°
2026-05-04 21:50 -14.66305 -39.46776 35138 ft 479 kts 34°
2026-05-04 21:51 -14.60906 -39.42726 35132 ft 479 kts 34°
2026-05-04 21:51 -14.55473 -39.38657 35135 ft 479 kts 33°
2026-05-04 21:52 -14.50083 -39.34613 35133 ft 479 kts 34°
2026-05-04 21:52 -14.44699 -39.30571 35127 ft 478 kts 34°
2026-05-04 21:53 -14.39318 -39.26535 35123 ft 478 kts 34°
2026-05-04 21:53 -14.33934 -39.22504 35124 ft 478 kts 34°
2026-05-04 21:54 -14.28587 -39.18507 35131 ft 477 kts 33°
2026-05-04 21:54 -14.23169 -39.14467 35126 ft 478 kts 33°
2026-05-04 21:55 -14.17826 -39.10478 35112 ft 477 kts 34°
2026-05-04 21:55 -14.12452 -39.06466 35114 ft 477 kts 34°
2026-05-04 21:56 -14.07080 -39.02447 35114 ft 477 kts 34°
2026-05-04 21:56 -14.01711 -38.98447 35112 ft 476 kts 34°
2026-05-04 21:57 -13.96334 -38.94456 35106 ft 476 kts 34°
2026-05-04 21:57 -13.90970 -38.90457 35104 ft 476 kts 34°
2026-05-04 21:58 -13.85607 -38.86457 35104 ft 476 kts 34°
2026-05-04 21:58 -13.80236 -38.82466 35106 ft 476 kts 34°
2026-05-04 21:59 -13.74864 -38.78479 35105 ft 476 kts 34°
2026-05-04 21:59 -13.69499 -38.74488 35101 ft 476 kts 34°
2026-05-04 22:00 -13.64131 -38.70502 35098 ft 476 kts 34°
2026-05-04 22:00 -13.58765 -38.66521 35104 ft 476 kts 34°
2026-05-04 22:01 -13.53398 -38.62539 35104 ft 475 kts 34°
2026-05-04 22:01 -13.48040 -38.58562 35103 ft 475 kts 34°
2026-05-04 22:02 -13.42683 -38.54587 35101 ft 475 kts 34°
2026-05-04 22:02 -13.37326 -38.50615 35102 ft 475 kts 34°
2026-05-04 22:03 -13.31970 -38.46656 35100 ft 474 kts 34°
2026-05-04 22:03 -13.26623 -38.42702 35097 ft 474 kts 34°
2026-05-04 22:04 -13.21281 -38.38753 35091 ft 473 kts 35°
2026-05-04 22:04 -13.15938 -38.34806 35088 ft 473 kts 34°
2026-05-04 22:05 -13.10594 -38.30860 35083 ft 473 kts 35°
2026-05-04 22:05 -13.05261 -38.26918 35078 ft 473 kts 35°
2026-05-04 22:06 -12.99924 -38.22982 35074 ft 473 kts 34°
2026-05-04 22:06 -12.94584 -38.19047 35075 ft 473 kts 35°
2026-05-04 22:07 -12.89252 -38.15117 35082 ft 472 kts 34°
2026-05-04 22:07 -12.83916 -38.11181 35085 ft 472 kts 35°
2026-05-04 22:08 -12.78587 -38.07256 35090 ft 472 kts 34°
2026-05-04 22:08 -12.73256 -38.03338 35091 ft 472 kts 34°
2026-05-04 22:09 -12.67914 -37.99421 35094 ft 472 kts 35°
2026-05-04 22:09 -12.62584 -37.95508 35097 ft 471 kts 35°
2026-05-04 22:10 -12.58120 -37.92229 35102 ft 471 kts 35°
2026-05-04 22:10 -12.52797 -37.88321 35100 ft 471 kts 35°
2026-05-04 22:11 -12.47480 -37.84424 35096 ft 470 kts 35°
2026-05-04 22:11 -12.42163 -37.80523 35089 ft 470 kts 35°
2026-05-04 22:12 -12.36846 -37.76622 35089 ft 470 kts 35°
2026-05-04 22:12 -12.31529 -37.72722 35088 ft 470 kts 35°
2026-05-04 22:13 -12.26207 -37.68828 35090 ft 470 kts 35°
2026-05-04 22:13 -12.20892 -37.64941 35089 ft 470 kts 35°
2026-05-04 22:14 -12.15572 -37.61052 35090 ft 470 kts 35°
2026-05-04 22:14 -12.10256 -37.57159 35091 ft 470 kts 35°
2026-05-04 22:15 -12.04946 -37.53266 35090 ft 469 kts 35°
2026-05-04 22:15 -11.99638 -37.49390 35086 ft 469 kts 35°
2026-05-04 22:16 -11.94326 -37.45519 35083 ft 469 kts 35°
2026-05-04 22:16 -11.88797 -37.41992 35083 ft 468 kts 29°
2026-05-04 22:17 -11.83156 -37.38670 35081 ft 468 kts 29°
2026-05-04 22:17 -11.77513 -37.35341 35080 ft 468 kts 29°
2026-05-04 22:18 -11.71873 -37.32012 35078 ft 468 kts 29°
2026-05-04 22:18 -11.66231 -37.28688 35076 ft 468 kts 29°
2026-05-04 22:19 -11.60587 -37.25362 35075 ft 468 kts 30°
2026-05-04 22:19 -11.54941 -37.22039 35080 ft 468 kts 29°
2026-05-04 22:20 -11.49305 -37.18720 35081 ft 468 kts 30°
2026-05-04 22:20 -11.43673 -37.15405 35080 ft 467 kts 29°
2026-05-04 22:21 -11.37998 -37.12068 35074 ft 467 kts 29°
2026-05-04 22:21 -11.32405 -37.08783 35073 ft 467 kts 29°
2026-05-04 22:22 -11.26735 -37.05462 35070 ft 467 kts 29°
2026-05-04 22:22 -11.21141 -37.02175 35073 ft 467 kts 29°
2026-05-04 22:23 -11.15476 -36.98844 35074 ft 467 kts 29°
2026-05-04 22:23 -11.09844 -36.95541 35071 ft 467 kts 29°
2026-05-04 22:24 -11.04213 -36.92236 35070 ft 467 kts 29°
2026-05-04 22:24 -10.98586 -36.88938 35065 ft 467 kts 29°
2026-05-04 22:25 -10.92954 -36.85641 35068 ft 467 kts 29°
2026-05-04 22:25 -10.87326 -36.82347 35065 ft 467 kts 29°
2026-05-04 22:26 -10.81700 -36.79053 35058 ft 467 kts 29°
2026-05-04 22:26 -10.76076 -36.75759 35061 ft 467 kts 29°
2026-05-04 22:27 -10.70446 -36.72466 35066 ft 466 kts 29°
2026-05-04 22:27 -10.64819 -36.69174 35065 ft 467 kts 29°
2026-05-04 22:28 -10.59190 -36.65883 35063 ft 467 kts 29°
2026-05-04 22:28 -10.53559 -36.62590 35059 ft 467 kts 29°
2026-05-04 22:29 -10.47928 -36.59305 35060 ft 467 kts 29°
2026-05-04 22:29 -10.42292 -36.56020 35065 ft 467 kts 29°
2026-05-04 22:30 -10.36654 -36.52737 35071 ft 467 kts 29°
2026-05-04 22:30 -10.31020 -36.49451 35062 ft 467 kts 29°
2026-05-04 22:31 -10.25386 -36.46164 35060 ft 467 kts 29°
2026-05-04 22:31 -10.19746 -36.42870 35062 ft 468 kts 29°
2026-05-04 22:32 -10.14104 -36.39587 35060 ft 467 kts 29°
2026-05-04 22:32 -10.08457 -36.36305 35070 ft 468 kts 29°
2026-05-04 22:33 -10.02820 -36.33028 35071 ft 467 kts 29°
2026-05-04 22:33 -9.97189 -36.29746 35072 ft 467 kts 29°
2026-05-04 22:34 -9.91551 -36.26466 35073 ft 467 kts 29°
2026-05-04 22:34 -9.85911 -36.23191 35078 ft 467 kts 29°
2026-05-04 22:35 -9.80269 -36.19913 35081 ft 467 kts 29°
2026-05-04 22:35 -9.74632 -36.16638 35075 ft 467 kts 28°
2026-05-04 22:36 -9.68998 -36.13365 35073 ft 467 kts 28°
2026-05-04 22:36 -9.63355 -36.10094 35077 ft 467 kts 28°
2026-05-04 22:37 -9.57718 -36.06831 35075 ft 467 kts 28°
2026-05-04 22:37 -9.52083 -36.03563 35076 ft 466 kts 28°
2026-05-04 22:38 -9.46453 -36.00291 34823 ft 466 kts 28°
2026-05-04 22:38 -9.43642 -35.98658 34306 ft 465 kts 28°
2026-05-04 22:38 -9.40797 -35.97010 33756 ft 464 kts 28°
2026-05-04 22:38 -9.38000 -35.95393 33245 ft 461 kts 28°
2026-05-04 22:39 -9.35225 -35.93787 32735 ft 458 kts 29°
2026-05-04 22:39 -9.32500 -35.92208 32231 ft 456 kts 29°
2026-05-04 22:39 -9.29751 -35.90619 31716 ft 454 kts 29°
2026-05-04 22:39 -9.27019 -35.89037 31214 ft 451 kts 29°
2026-05-04 22:40 -9.24268 -35.87446 30710 ft 448 kts 29°
2026-05-04 22:40 -9.21570 -35.85887 30221 ft 445 kts 29°
2026-05-04 22:40 -9.18891 -35.84337 29681 ft 442 kts 29°
2026-05-04 22:40 -9.16240 -35.82801 29216 ft 437 kts 29°
2026-05-04 22:41 -9.13613 -35.81283 28769 ft 432 kts 29°
2026-05-04 22:41 -9.11025 -35.79787 28290 ft 427 kts 30°
2026-05-04 22:41 -9.08458 -35.78298 27861 ft 423 kts 30°
2026-05-04 22:41 -9.05920 -35.76827 27429 ft 418 kts 30°
2026-05-04 22:42 -9.03409 -35.75373 27001 ft 414 kts 31°
2026-05-04 22:42 -9.01070 -35.73705 26588 ft 410 kts 41°
2026-05-04 22:42 -8.98996 -35.71748 26194 ft 406 kts 44°
2026-05-04 22:42 -8.96953 -35.69793 25784 ft 403 kts 44°
2026-05-04 22:43 -8.94918 -35.67849 25366 ft 401 kts 44°
2026-05-04 22:43 -8.92889 -35.65913 24949 ft 400 kts 44°
2026-05-04 22:43 -8.90865 -35.63986 24508 ft 399 kts 44°
2026-05-04 22:43 -8.88846 -35.62067 24077 ft 398 kts 44°
2026-05-04 22:44 -8.86828 -35.60149 23631 ft 397 kts 44°
2026-05-04 22:44 -8.84818 -35.58235 23130 ft 396 kts 44°
2026-05-04 22:44 -8.82827 -35.56333 22674 ft 393 kts 44°
2026-05-04 22:44 -8.80848 -35.54444 22217 ft 390 kts 44°
2026-05-04 22:45 -8.79542 -35.53200 21914 ft 388 kts 44°
2026-05-04 22:45 -8.75632 -35.49482 21007 ft 383 kts 44°
2026-05-04 22:45 -8.73699 -35.47642 20550 ft 380 kts 44°
2026-05-04 22:46 -8.71780 -35.45818 20107 ft 378 kts 44°
2026-05-04 22:46 -8.69874 -35.44005 19638 ft 375 kts 44°
2026-05-04 22:46 -8.67985 -35.42203 19189 ft 372 kts 44°
2026-05-04 22:46 -8.66105 -35.40412 18738 ft 370 kts 44°
2026-05-04 22:47 -8.64237 -35.38634 18301 ft 368 kts 44°
2026-05-04 22:47 -8.62386 -35.36875 17838 ft 364 kts 44°
2026-05-04 22:47 -8.60550 -35.35133 17421 ft 359 kts 44°
2026-05-04 22:47 -8.58732 -35.33409 16930 ft 357 kts 44°
2026-05-04 22:48 -8.56932 -35.31705 16478 ft 353 kts 44°
2026-05-04 22:48 -8.55148 -35.30017 16041 ft 350 kts 44°
2026-05-04 22:48 -8.53384 -35.28344 15617 ft 346 kts 44°
2026-05-04 22:48 -8.51637 -35.26686 15194 ft 343 kts 44°
2026-05-04 22:49 -8.49907 -35.25042 14775 ft 340 kts 44°
2026-05-04 22:49 -8.48193 -35.23414 14349 ft 337 kts 44°
2026-05-04 22:49 -8.46493 -35.21804 13944 ft 334 kts 44°
2026-05-04 22:49 -8.44801 -35.20202 13509 ft 332 kts 44°
2026-05-04 22:50 -8.43125 -35.18618 13093 ft 328 kts 44°
2026-05-04 22:50 -8.41447 -35.17033 12689 ft 324 kts 44°
2026-05-04 22:50 -8.39807 -35.15483 12288 ft 321 kts 44°
2026-05-04 22:50 -8.38180 -35.13945 11891 ft 319 kts 44°
2026-05-04 22:51 -8.36566 -35.12422 11495 ft 317 kts 45°
2026-05-04 22:51 -8.34977 -35.10923 11281 ft 308 kts 45°
2026-05-04 22:51 -8.33429 -35.09462 11010 ft 303 kts 45°
2026-05-04 22:51 -8.31896 -35.08014 10642 ft 301 kts 45°
2026-05-04 22:52 -8.30368 -35.06570 10273 ft 300 kts 45°
2026-05-04 22:52 -8.28806 -35.05172 9905 ft 300 kts 38°
2026-05-04 22:52 -8.26980 -35.04148 9506 ft 302 kts 22°
2026-05-04 22:52 -8.24959 -35.03585 9106 ft 302 kts 14°
2026-05-04 22:53 -8.22910 -35.03113 8712 ft 301 kts 14°
2026-05-04 22:53 -8.20870 -35.02637 8319 ft 301 kts 15°
2026-05-04 22:53 -8.18834 -35.02173 7937 ft 300 kts 11°
2026-05-04 22:53 -8.16752 -35.02075 7547 ft 301 kts 355°
2026-05-04 22:54 -8.14702 -35.02510 7171 ft 302 kts 342°
2026-05-04 22:54 -8.12703 -35.03147 6801 ft 303 kts 343°
2026-05-04 22:54 -8.10700 -35.03779 6471 ft 301 kts 343°
2026-05-04 22:54 -8.08704 -35.04404 6121 ft 300 kts 343°
2026-05-04 22:55 -8.06717 -35.05024 5742 ft 299 kts 343°
2026-05-04 22:55 -8.04728 -35.05645 5375 ft 299 kts 343°
2026-05-04 22:55 -8.02753 -35.06259 4995 ft 297 kts 343°
2026-05-04 22:55 -8.00733 -35.06550 4500 ft 289 kts
2026-05-04 22:56 -7.98899 -35.05880 3786 ft 276 kts 41°
2026-05-04 22:56 -7.97716 -35.04520 3633 ft 245 kts 67°
2026-05-04 22:56 -7.97122 -35.02985 3576 ft 229 kts 77°
2026-05-04 22:56 -7.96621 -35.01470 3486 ft 228 kts 77°
2026-05-04 22:57 -7.96148 -34.99960 3376 ft 224 kts 84°
2026-05-04 22:57 -7.96285 -34.98479 3273 ft 207 kts 120°
2026-05-04 22:57 -7.97204 -34.97446 3059 ft 197 kts 151°
2026-05-04 22:57 -7.98484 -34.96972 2646 ft 198 kts 161°
2026-05-04 22:58 -7.99793 -34.96551 2266 ft 192 kts 161°
2026-05-04 22:58 -8.01007 -34.96154 2076 ft 177 kts 161°
2026-05-04 22:58 -8.02139 -34.95781 1869 ft 165 kts 161°
2026-05-04 22:58 -8.03177 -34.95438 1675 ft 151 kts 161°
2026-05-04 22:59 -8.04155 -34.95117 1504 ft 146 kts 161°
2026-05-04 22:59 -8.05111 -34.94802 1315 ft 141 kts 161°
2026-05-04 22:59 -8.06025 -34.94500 1124 ft 136 kts 161°
2026-05-04 22:59 -8.06917 -34.94205 981 ft 134 kts 162°
2026-05-04 23:00 -8.07802 -34.93905 796 ft 134 kts 162°
2026-05-04 23:00 -8.08692 -34.93611 581 ft 134 kts 163°
2026-05-04 23:00 -8.09578 -34.93319 449 ft 135 kts 161°
2026-05-04 23:00 -8.10483 -34.93013 289 ft 135 kts 162°
2026-05-04 23:01 -8.11370 -34.92728 113 ft 133 kts 162°
2026-05-04 23:01 -8.12209 -34.92449 34 ft 112 kts 162°
2026-05-04 23:01 -8.12783 -34.92264 38 ft 62 kts 162°
2026-05-04 23:01 -8.13053 -34.92178 38 ft 30 kts 163°
2026-05-04 23:02 -8.13199 -34.92129 37 ft 17 kts 150°
2026-05-04 23:02 -8.13264 -34.92056 37 ft 6 kts 122°
2026-05-04 23:02 -8.13289 -34.92016 36 ft 7 kts 123°
2026-05-04 23:02 -8.13286 -34.91973 36 ft 7 kts 38°
2026-05-04 23:03 -8.13235 -34.91972 37 ft 9 kts 346°
2026-05-04 23:03 -8.13176 -34.91989 38 ft 7 kts 342°
2026-05-04 23:03 -8.13124 -34.92006 36 ft 9 kts 341°
2026-05-04 23:03 -8.13088 -34.92008 38 ft 5 kts 27°
2026-05-04 23:04 -8.13067 -34.91980 38 ft 1 kts 65°
2026-05-04 23:04 -8.13063 -34.91969 38 ft 0 kts 68°